Location: Chimay
(50.0486°N, 4.3171°E)
Time: 03:38:12
(UTC+00:00)

Cosmos 1805 Rocket - Pass Details

Date: 08 August 2020
Orbit: 605 x 631 km, 82.5° (Epoch: 25 September)

Event Time Altitude Azimuth Distance (km) Brightness Sun altitude
Rises 20:31:47 0° 198° (SSW) 2,893 6.8 -11.3°
Reaches altitude 10° 20:34:01 10° 201° (SSW) 1,995 6.0 -11.5°
Maximum altitude 20:38:24 61° 283° (WNW) 714 4.1 -12.0°
Drops below altitude 10° 20:42:51 10° 4° (N) 2,022 6.8 -12.6°
Sets 20:45:08 0° 8° (N) 2,936 7.6 -12.8°
